Time,TemperatureF,DewpointF,PressureIn,WindDirection,WindDirectionDegrees,WindSpeedMPH,WindSpeedGustMPH,Humidity,HourlyPrecipIn,Conditions,Clouds,dailyrainin,SoftwareType,DateUTC
2013-11-22 00:00:00,52.5,50.2,30.20,SSW,210,5.0,6.0,92,0.00,,,0.09,Wunderground v.1.15,2013-11-22 05:00:00,
2013-11-22 00:02:00,52.5,50.2,30.20,SSW,209,5.0,5.0,92,0.00,,,0.09,Wunderground v.1.15,2013-11-22 05:02:00,
2013-11-22 00:04:00,52.5,50.2,30.20,SW,216,5.0,6.0,92,0.00,,,0.09,Wunderground v.1.15,2013-11-22 05:04:00,
2013-11-22 00:06:00,52.5,50.2,30.21,SSW,211,4.0,6.0,92,0.00,,,0.09,Wunderground v.1.15,2013-11-22 05:06:00,
2013-11-22 00:08:00,52.4,50.4,30.20,SW,222,4.0,6.0,93,0.00,,,0.09,Wunderground v.1.15,2013-11-22 05:08:00,
2013-11-22 00:10:00,52.4,50.4,30.20,SSW,201,4.0,6.0,93,0.00,,,0.09,Wunderground v.1.15,2013-11-22 05:10:00,
2013-11-22 00:12:00,52.4,50.1,30.20,SSW,202,4.0,4.0,92,0.00,,,0.09,Wunderground v.1.15,2013-11-22 05:12:00,
2013-11-22 00:18:00,52.4,50.4,30.20,South,185,2.0,6.0,93,0.00,,,0.00,Wunderground v.1.15,2013-11-22 05:18:00,
2013-11-22 00:20:00,52.3,50.3,30.20,South,185,2.0,6.0,93,0.00,,,0.00,Wunderground v.1.15,2013-11-22 05:20:00,
2013-11-22 00:22:00,52.3,50.3,30.20,SSW,205,2.0,6.0,93,0.00,,,0.00,Wunderground v.1.15,2013-11-22 05:22:00,
2013-11-22 00:24:00,52.3,50.3,30.20,South,176,2.0,6.0,93,0.00,,,0.00,Wunderground v.1.15,2013-11-22 05:24:00,
2013-11-22 00:26:00,52.3,50.3,30.19,South,177,2.0,6.0,93,0.00,,,0.00,Wunderground v.1.15,2013-11-22 05:26:00,
2013-11-22 00:32:00,52.3,50.3,30.19,South,189,3.0,3.0,93,0.00,,,0.00,Wunderground v.1.15,2013-11-22 05:32:00,
2013-11-22 00:34:00,52.3,50.3,30.19,South,171,3.0,6.0,93,0.00,,,0.00,Wunderground v.1.15,2013-11-22 05:34:00,
2013-11-22 00:40:00,52.4,50.4,30.20,South,179,3.0,6.0,93,0.00,,,0.00,Wunderground v.1.15,2013-11-22 05:40:00,
2013-11-22 00:42:00,52.5,50.5,30.19,SW,216,3.0,6.0,93,0.00,,,0.00,Wunderground v.1.15,2013-11-22 05:42:00,
2013-11-22 00:46:00,52.7,51.0,30.19,SW,233,5.0,6.0,94,0.00,,,0.00,Wunderground v.1.15,2013-11-22 05:46:00,
2013-11-22 00:48:00,52.7,51.0,30.19,SW,235,5.0,6.0,94,0.00,,,0.00,Wunderground v.1.15,2013-11-22 05:48:00,
2013-11-22 00:50:00,52.8,51.1,30.19,SW,218,5.0,6.0,94,0.00,,,0.00,Wunderground v.1.15,2013-11-22 05:50:00,
2013-11-22 00:52:00,52.8,51.1,30.19,SW,231,5.0,10.0,94,0.00,,,0.00,Wunderground v.1.15,2013-11-22 05:52:00,
2013-11-22 00:54:00,52.9,51.2,30.19,SW,229,5.0,10.0,94,0.00,,,0.00,Wunderground v.1.15,2013-11-22 05:54:00,
2013-11-22 00:58:00,53.0,51.3,30.19,SW,228,5.0,10.0,94,0.00,,,0.00,Wunderground v.1.15,2013-11-22 05:58:00,
2013-11-22 01:00:00,53.0,51.3,30.19,West,261,6.0,11.0,94,0.00,,,0.00,Wunderground v.1.15,2013-11-22 06:00:00,
2013-11-22 01:02:00,53.1,51.4,30.19,SW,236,6.0,10.0,94,0.00,,,0.00,Wunderground v.1.15,2013-11-22 06:02:00,
2013-11-22 01:06:00,53.1,51.4,30.19,SW,234,7.0,10.0,94,0.00,,,0.00,Wunderground v.1.15,2013-11-22 06:06:00,
2013-11-22 01:08:00,53.2,51.5,30.19,SW,234,7.0,10.0,94,0.00,,,0.00,Wunderground v.1.15,2013-11-22 06:08:00,
2013-11-22 01:10:00,53.2,51.5,30.19,SW,227,7.0,10.0,94,0.00,,,0.00,Wunderground v.1.15,2013-11-22 06:10:00,
2013-11-22 01:12:00,53.2,51.5,30.19,SW,220,7.0,7.0,94,0.00,,,0.00,Wunderground v.1.15,2013-11-22 06:12:00,
2013-11-22 01:16:00,53.2,51.5,30.19,SW,226,7.0,7.0,94,0.00,,,0.01,Wunderground v.1.15,2013-11-22 06:16:00,
2013-11-22 01:20:00,53.2,51.5,30.19,SSW,199,7.0,7.0,94,0.00,,,0.01,Wunderground v.1.15,2013-11-22 06:20:00,
2013-11-22 01:22:00,53.2,51.5,30.18,SW,225,6.0,8.0,94,0.00,,,0.01,Wunderground v.1.15,2013-11-22 06:22:00,
2013-11-22 01:24:00,53.3,51.6,30.18,SW,223,7.0,8.0,94,0.00,,,0.01,Wunderground v.1.15,2013-11-22 06:24:00,
2013-11-22 01:28:00,53.2,51.5,30.18,SW,234,6.0,8.0,94,0.00,,,0.01,Wunderground v.1.15,2013-11-22 06:28:00,
2013-11-22 01:30:00,53.3,51.6,30.19,SW,222,7.0,8.0,94,0.00,,,0.01,Wunderground v.1.15,2013-11-22 06:30:00,
2013-11-22 01:32:00,53.3,51.6,30.19,SW,230,7.0,7.0,94,0.00,,,0.01,Wunderground v.1.15,2013-11-22 06:32:00,
2013-11-22 01:38:00,53.3,51.6,30.19,SW,221,6.0,10.0,94,0.00,,,0.01,Wunderground v.1.15,2013-11-22 06:38:00,
2013-11-22 01:40:00,53.3,51.6,30.19,SW,229,6.0,10.0,94,0.00,,,0.01,Wunderground v.1.15,2013-11-22 06:40:00,
2013-11-22 01:42:00,53.3,51.6,30.18,SW,234,6.0,7.0,94,0.00,,,0.01,Wunderground v.1.15,2013-11-22 06:42:00,
2013-11-22 01:44:00,53.3,51.6,30.18,WSW,238,7.0,7.0,94,0.00,,,0.01,Wunderground v.1.15,2013-11-22 06:44:00,
2013-11-22 01:46:00,53.3,51.6,30.18,SW,221,7.0,7.0,94,0.00,,,0.01,Wunderground v.1.15,2013-11-22 06:46:00,
2013-11-22 01:50:00,53.3,51.6,30.19,SSW,211,6.0,7.0,94,0.00,,,0.01,Wunderground v.1.15,2013-11-22 06:50:00,
2013-11-22 01:52:00,53.3,51.6,30.19,WSW,247,6.0,6.0,94,0.00,,,0.01,Wunderground v.1.15,2013-11-22 06:52:00,
2013-11-22 01:54:00,53.3,51.6,30.19,SW,224,6.0,6.0,94,0.00,,,0.01,Wunderground v.1.15,2013-11-22 06:54:00,
2013-11-22 01:56:00,53.3,51.6,30.19,SW,230,6.0,8.0,94,0.00,,,0.01,Wunderground v.1.15,2013-11-22 06:56:00,
2013-11-22 01:58:00,53.3,51.6,30.19,SW,220,6.0,8.0,94,0.00,,,0.01,Wunderground v.1.15,2013-11-22 06:58:00,
2013-11-22 02:00:00,53.3,51.6,30.19,SW,231,5.0,8.0,94,0.00,,,0.01,Wunderground v.1.15,2013-11-22 07:00:00,
2013-11-22 02:02:00,53.3,51.6,30.19,SW,216,6.0,6.0,94,0.00,,,0.01,Wunderground v.1.15,2013-11-22 07:02:00,
2013-11-22 02:04:00,53.3,51.6,30.19,WSW,253,6.0,6.0,94,0.00,,,0.01,Wunderground v.1.15,2013-11-22 07:04:00,
2013-11-22 02:06:00,53.3,51.6,30.18,SW,224,5.0,6.0,94,0.00,,,0.01,Wunderground v.1.15,2013-11-22 07:06:00,
2013-11-22 02:08:00,53.4,51.7,30.18,SW,231,5.0,6.0,94,0.00,,,0.01,Wunderground v.1.15,2013-11-22 07:08:00,
2013-11-22 02:12:00,53.4,51.7,30.19,WSW,238,5.0,6.0,94,0.00,,,0.01,Wunderground v.1.15,2013-11-22 07:12:00,
2013-11-22 02:14:00,53.3,51.6,30.18,SW,223,5.0,6.0,94,0.00,,,0.01,Wunderground v.1.15,2013-11-22 07:14:00,
2013-11-22 02:16:00,53.3,51.6,30.19,WNW,295,4.0,6.0,94,0.00,,,0.01,Wunderground v.1.15,2013-11-22 07:16:00,
2013-11-22 02:18:00,53.3,51.6,30.19,SW,218,4.0,6.0,94,0.00,,,0.01,Wunderground v.1.15,2013-11-22 07:18:00,
2013-11-22 02:20:00,53.3,51.6,30.19,SSW,212,4.0,6.0,94,0.00,,,0.01,Wunderground v.1.15,2013-11-22 07:20:00,
2013-11-22 02:26:00,53.4,51.7,30.19,SSW,208,5.0,8.0,94,0.00,,,0.01,Wunderground v.1.15,2013-11-22 07:26:00,
2013-11-22 02:30:00,53.4,51.7,30.19,SW,214,5.0,8.0,94,0.00,,,0.01,Wunderground v.1.15,2013-11-22 07:30:00,
2013-11-22 02:32:00,53.4,51.7,30.19,SSE,163,5.0,6.0,94,0.00,,,0.01,Wunderground v.1.15,2013-11-22 07:32:00,
2013-11-22 02:36:00,53.4,51.7,30.19,SW,232,5.0,7.0,94,0.00,,,0.01,Wunderground v.1.15,2013-11-22 07:36:00,
2013-11-22 02:38:00,53.4,51.7,30.19,SSW,207,5.0,7.0,94,0.00,,,0.01,Wunderground v.1.15,2013-11-22 07:38:00,
2013-11-22 02:42:00,53.4,51.7,30.19,SSW,207,4.0,4.0,94,0.00,,,0.01,Wunderground v.1.15,2013-11-22 07:42:00,
2013-11-22 02:44:00,53.3,51.6,30.19,West,274,3.0,6.0,94,0.00,,,0.01,Wunderground v.1.15,2013-11-22 07:44:00,
2013-11-22 02:46:00,53.3,51.6,30.19,West,259,2.0,6.0,94,0.00,,,0.01,Wunderground v.1.15,2013-11-22 07:46:00,
2013-11-22 02:48:00,53.3,51.6,30.19,West,267,2.0,6.0,94,0.00,,,0.01,Wunderground v.1.15,2013-11-22 07:48:00,
2013-11-22 02:52:00,53.3,51.6,30.19,WSW,248,3.0,6.0,94,0.00,,,0.01,Wunderground v.1.15,2013-11-22 07:52:00,
2013-11-22 02:54:00,53.3,51.6,30.19,WSW,239,3.0,6.0,94,0.00,,,0.01,Wunderground v.1.15,2013-11-22 07:54:00,
2013-11-22 03:00:00,53.2,51.5,30.19,SW,226,3.0,6.0,94,0.00,,,0.01,Wunderground v.1.15,2013-11-22 08:00:00,
2013-11-22 03:02:00,53.2,51.5,30.19,WSW,252,3.0,3.0,94,0.00,,,0.01,Wunderground v.1.15,2013-11-22 08:02:00,
2013-11-22 03:04:00,53.1,51.4,30.19,West,276,3.0,6.0,94,0.00,,,0.01,Wunderground v.1.15,2013-11-22 08:04:00,
2013-11-22 03:06:00,53.1,51.4,30.19,WSW,253,3.0,6.0,94,0.00,,,0.01,Wunderground v.1.15,2013-11-22 08:06:00,
2013-11-22 03:08:00,53.1,51.4,30.19,West,267,3.0,6.0,94,0.00,,,0.01,Wunderground v.1.15,2013-11-22 08:08:00,
2013-11-22 03:10:00,53.1,51.4,30.20,SSW,213,3.0,6.0,94,0.00,,,0.01,Wunderground v.1.15,2013-11-22 08:10:00,
2013-11-22 03:16:00,53.0,51.3,30.20,SSW,206,4.0,6.0,94,0.00,,,0.01,Wunderground v.1.15,2013-11-22 08:16:00,
2013-11-22 03:18:00,53.0,51.3,30.20,WSW,253,4.0,8.0,94,0.00,,,0.01,Wunderground v.1.15,2013-11-22 08:18:00,
2013-11-22 03:20:00,53.0,51.3,30.20,SE,133,4.0,8.0,94,0.00,,,0.01,Wunderground v.1.15,2013-11-22 08:20:00,
2013-11-22 03:22:00,52.9,51.2,30.20,WSW,256,4.0,6.0,94,0.00,,,0.01,Wunderground v.1.15,2013-11-22 08:22:00,
2013-11-22 03:26:00,52.9,51.2,30.19,West,278,3.0,6.0,94,0.00,,,0.01,Wunderground v.1.15,2013-11-22 08:26:00,
2013-11-22 03:28:00,52.9,51.2,30.19,West,267,3.0,6.0,94,0.00,,,0.01,Wunderground v.1.15,2013-11-22 08:28:00,
2013-11-22 03:30:00,52.8,51.1,30.19,WSW,245,2.0,6.0,94,0.00,,,0.01,Wunderground v.1.15,2013-11-22 08:30:00,
2013-11-22 03:32:00,52.8,51.1,30.19,West,261,2.0,2.0,94,0.00,,,0.01,Wunderground v.1.15,2013-11-22 08:32:00,
2013-11-22 03:36:00,52.8,51.1,30.19,WNW,290,2.0,6.0,94,0.00,,,0.01,Wunderground v.1.15,2013-11-22 08:36:00,
2013-11-22 03:38:00,52.8,51.1,30.19,WNW,290,2.0,6.0,94,0.00,,,0.01,Wunderground v.1.15,2013-11-22 08:38:00,
2013-11-22 03:42:00,52.7,51.0,30.19,WNW,290,1.0,6.0,94,0.00,,,0.01,Wunderground v.1.15,2013-11-22 08:42:00,
2013-11-22 03:44:00,52.7,51.0,30.19,WNW,290,1.0,6.0,94,0.00,,,0.01,Wunderground v.1.15,2013-11-22 08:44:00,
2013-11-22 03:46:00,52.7,51.0,30.19,WNW,290,1.0,6.0,94,0.00,,,0.01,Wunderground v.1.15,2013-11-22 08:46:00,
2013-11-22 03:48:00,52.7,51.0,30.19,WNW,290,1.0,6.0,94,0.00,,,0.01,Wunderground v.1.15,2013-11-22 08:48:00,
2013-11-22 03:50:00,52.6,50.9,30.18,WNW,290,1.0,6.0,94,0.00,,,0.01,Wunderground v.1.15,2013-11-22 08:50:00,
2013-11-22 03:54:00,52.6,50.9,30.18,WNW,290,1.0,6.0,94,0.00,,,0.01,Wunderground v.1.15,2013-11-22 08:54:00,
2013-11-22 03:56:00,52.6,50.9,30.18,WNW,290,1.0,6.0,94,0.00,,,0.01,Wunderground v.1.15,2013-11-22 08:56:00,
2013-11-22 03:58:00,52.5,50.8,30.18,WNW,290,1.0,6.0,94,0.00,,,0.02,Wunderground v.1.15,2013-11-22 08:58:00,
2013-11-22 04:00:00,52.5,50.8,30.18,WNW,290,1.0,6.0,94,0.00,,,0.02,Wunderground v.1.15,2013-11-22 09:00:00,
2013-11-22 04:02:00,52.5,50.8,30.18,WNW,290,1.0,6.0,94,0.00,,,0.02,Wunderground v.1.15,2013-11-22 09:02:00,
2013-11-22 04:04:00,52.4,50.7,30.18,WNW,290,1.0,6.0,94,0.00,,,0.02,Wunderground v.1.15,2013-11-22 09:04:00,
2013-11-22 04:10:00,52.4,51.0,30.18,WNW,290,1.0,6.0,95,0.00,,,0.02,Wunderground v.1.15,2013-11-22 09:10:00,
2013-11-22 04:14:00,52.3,50.9,30.18,WNW,290,2.0,6.0,95,0.00,,,0.02,Wunderground v.1.15,2013-11-22 09:14:00,
2013-11-22 04:18:00,52.3,50.6,30.18,WNW,290,2.0,6.0,94,0.00,,,0.02,Wunderground v.1.15,2013-11-22 09:18:00,
2013-11-22 04:20:00,52.2,50.5,30.18,WNW,290,1.0,6.0,94,0.00,,,0.02,Wunderground v.1.15,2013-11-22 09:20:00,
2013-11-22 04:24:00,52.2,50.5,30.17,WNW,290,1.0,6.0,94,0.00,,,0.02,Wunderground v.1.15,2013-11-22 09:24:00,
2013-11-22 04:28:00,52.2,50.5,30.17,WNW,290,1.0,6.0,94,0.00,,,0.02,Wunderground v.1.15,2013-11-22 09:28:00,
2013-11-22 04:30:00,52.2,50.5,30.17,WNW,290,1.0,6.0,94,0.00,,,0.02,Wunderground v.1.15,2013-11-22 09:30:00,
2013-11-22 04:34:00,52.1,50.7,30.18,WNW,290,1.0,6.0,95,0.00,,,0.02,Wunderground v.1.15,2013-11-22 09:34:00,
2013-11-22 04:36:00,52.1,50.7,30.18,WNW,290,1.0,6.0,95,0.00,,,0.02,Wunderground v.1.15,2013-11-22 09:36:00,
2013-11-22 04:38:00,52.1,50.7,30.18,WNW,290,1.0,6.0,95,0.00,,,0.02,Wunderground v.1.15,2013-11-22 09:38:00,
2013-11-22 04:40:00,52.1,50.7,30.18,WNW,290,1.0,6.0,95,0.00,,,0.02,Wunderground v.1.15,2013-11-22 09:40:00,
2013-11-22 04:44:00,52.1,50.7,30.17,WNW,290,0.0,6.0,95,0.00,,,0.02,Wunderground v.1.15,2013-11-22 09:44:00,
2013-11-22 04:48:00,52.0,50.6,30.17,WNW,290,0.0,6.0,95,0.00,,,0.02,Wunderground v.1.15,2013-11-22 09:48:00,
2013-11-22 04:50:00,52.0,50.6,30.17,WNW,290,0.0,6.0,95,0.00,,,0.02,Wunderground v.1.15,2013-11-22 09:50:00,
2013-11-22 04:54:00,52.0,50.6,30.17,WNW,290,0.0,6.0,95,0.00,,,0.02,Wunderground v.1.15,2013-11-22 09:54:00,
2013-11-22 04:56:00,52.0,50.6,30.18,WNW,290,0.0,6.0,95,0.00,,,0.02,Wunderground v.1.15,2013-11-22 09:56:00,
2013-11-22 05:00:00,52.0,50.6,30.17,WNW,290,0.0,6.0,95,0.00,,,0.02,Wunderground v.1.15,2013-11-22 10:00:00,
2013-11-22 05:02:00,52.0,50.6,30.17,WNW,290,0.0,6.0,95,0.00,,,0.02,Wunderground v.1.15,2013-11-22 10:02:00,
2013-11-22 05:04:00,51.9,50.5,30.17,WNW,290,1.0,6.0,95,0.00,,,0.02,Wunderground v.1.15,2013-11-22 10:04:00,
2013-11-22 05:08:00,51.9,50.5,30.17,WNW,290,1.0,6.0,95,0.00,,,0.02,Wunderground v.1.15,2013-11-22 10:08:00,
2013-11-22 05:10:00,51.9,50.5,30.18,WNW,290,1.0,6.0,95,0.00,,,0.02,Wunderground v.1.15,2013-11-22 10:10:00,
2013-11-22 05:14:00,51.9,50.5,30.17,WNW,290,2.0,6.0,95,0.00,,,0.02,Wunderground v.1.15,2013-11-22 10:14:00,
2013-11-22 05:16:00,51.8,50.4,30.17,WNW,290,2.0,6.0,95,0.00,,,0.02,Wunderground v.1.15,2013-11-22 10:16:00,
2013-11-22 05:20:00,51.8,50.4,30.17,WNW,290,2.0,6.0,95,0.00,,,0.02,Wunderground v.1.15,2013-11-22 10:20:00,
2013-11-22 05:26:00,51.7,50.3,30.17,WNW,290,2.0,6.0,95,0.00,,,0.02,Wunderground v.1.15,2013-11-22 10:26:00,
2013-11-22 05:28:00,51.7,50.3,30.17,WNW,290,2.0,6.0,95,0.00,,,0.02,Wunderground v.1.15,2013-11-22 10:28:00,
2013-11-22 05:30:00,51.7,50.3,30.17,WNW,290,2.0,6.0,95,0.00,,,0.02,Wunderground v.1.15,2013-11-22 10:30:00,
2013-11-22 05:32:00,51.7,50.3,30.18,WNW,290,2.0,6.0,95,0.00,,,0.02,Wunderground v.1.15,2013-11-22 10:32:00,
2013-11-22 05:34:00,51.6,50.2,30.18,WNW,290,2.0,6.0,95,0.00,,,0.02,Wunderground v.1.15,2013-11-22 10:34:00,
2013-11-22 05:36:00,51.6,50.2,30.17,WNW,290,2.0,6.0,95,0.00,,,0.02,Wunderground v.1.15,2013-11-22 10:36:00,
2013-11-22 05:38:00,51.6,50.2,30.18,WNW,290,2.0,6.0,95,0.00,,,0.02,Wunderground v.1.15,2013-11-22 10:38:00,
2013-11-22 05:40:00,51.5,50.1,30.18,WNW,290,2.0,6.0,95,0.00,,,0.02,Wunderground v.1.15,2013-11-22 10:40:00,
2013-11-22 05:44:00,51.5,50.1,30.18,WNW,290,2.0,6.0,95,0.00,,,0.02,Wunderground v.1.15,2013-11-22 10:44:00,
2013-11-22 05:46:00,51.5,50.1,30.18,WNW,290,1.0,6.0,95,0.00,,,0.02,Wunderground v.1.15,2013-11-22 10:46:00,
2013-11-22 05:48:00,51.5,50.1,30.18,WNW,290,1.0,6.0,95,0.00,,,0.02,Wunderground v.1.15,2013-11-22 10:48:00,
2013-11-22 05:50:00,51.5,50.1,30.18,WNW,290,1.0,6.0,95,0.00,,,0.02,Wunderground v.1.15,2013-11-22 10:50:00,
2013-11-22 05:52:00,51.5,50.1,30.18,WNW,290,2.0,6.0,95,0.00,,,0.02,Wunderground v.1.15,2013-11-22 10:52:00,
2013-11-22 05:54:00,51.5,50.1,30.18,WNW,290,2.0,6.0,95,0.00,,,0.02,Wunderground v.1.15,2013-11-22 10:54:00,
2013-11-22 05:56:00,51.5,50.1,30.18,WNW,290,2.0,6.0,95,0.00,,,0.02,Wunderground v.1.15,2013-11-22 10:56:00,
2013-11-22 05:58:00,51.5,50.1,30.18,WNW,291,2.0,6.0,95,0.00,,,0.02,Wunderground v.1.15,2013-11-22 10:58:00,
2013-11-22 06:04:00,51.4,50.0,30.18,WNW,289,2.0,6.0,95,0.00,,,0.02,Wunderground v.1.15,2013-11-22 11:04:00,
2013-11-22 06:06:00,51.4,50.0,30.18,WNW,289,2.0,6.0,95,0.00,,,0.02,Wunderground v.1.15,2013-11-22 11:06:00,
2013-11-22 06:08:00,51.4,50.0,30.18,WNW,292,2.0,6.0,95,0.00,,,0.02,Wunderground v.1.15,2013-11-22 11:08:00,
2013-11-22 06:10:00,51.4,50.0,30.18,WNW,297,3.0,6.0,95,0.00,,,0.02,Wunderground v.1.15,2013-11-22 11:10:00,
2013-11-22 06:14:00,51.3,49.9,30.18,WNW,298,3.0,3.0,95,0.00,,,0.02,Wunderground v.1.15,2013-11-22 11:14:00,
2013-11-22 06:16:00,51.3,49.9,30.18,NW,305,3.0,3.0,95,0.00,,,0.02,Wunderground v.1.15,2013-11-22 11:16:00,
2013-11-22 06:22:00,51.2,49.8,30.18,NW,317,4.0,4.0,95,0.00,,,0.02,Wunderground v.1.15,2013-11-22 11:22:00,
2013-11-22 06:24:00,51.1,49.7,30.18,NW,326,4.0,5.0,95,0.00,,,0.02,Wunderground v.1.15,2013-11-22 11:24:00,
2013-11-22 06:26:00,51.1,49.7,30.18,NW,324,4.0,5.0,95,0.00,,,0.02,Wunderground v.1.15,2013-11-22 11:26:00,
2013-11-22 06:28:00,51.1,49.7,30.18,NW,323,4.0,5.0,95,0.00,,,0.03,Wunderground v.1.15,2013-11-22 11:28:00,
2013-11-22 06:30:00,51.0,49.6,30.19,NW,308,4.0,5.0,95,0.00,,,0.03,Wunderground v.1.15,2013-11-22 11:30:00,
2013-11-22 06:32:00,51.0,49.6,30.19,NW,312,4.0,5.0,95,0.00,,,0.03,Wunderground v.1.15,2013-11-22 11:32:00,
2013-11-22 06:36:00,51.0,49.6,30.19,NW,308,4.0,5.0,95,0.00,,,0.03,Wunderground v.1.15,2013-11-22 11:36:00,
2013-11-22 06:38:00,51.0,49.6,30.19,NW,312,4.0,5.0,95,0.00,,,0.03,Wunderground v.1.15,2013-11-22 11:38:00,
2013-11-22 06:40:00,51.0,49.6,30.19,NW,309,5.0,5.0,95,0.00,,,0.03,Wunderground v.1.15,2013-11-22 11:40:00,
2013-11-22 06:44:00,50.9,49.5,30.19,NW,310,4.0,4.0,95,0.00,,,0.03,Wunderground v.1.15,2013-11-22 11:44:00,
2013-11-22 06:46:00,50.9,49.5,30.19,NW,305,4.0,4.0,95,0.00,,,0.03,Wunderground v.1.15,2013-11-22 11:46:00,
2013-11-22 06:48:00,50.9,49.5,30.20,NW,313,4.0,4.0,95,0.00,,,0.03,Wunderground v.1.15,2013-11-22 11:48:00,
2013-11-22 06:50:00,50.9,49.5,30.20,NW,308,4.0,4.0,95,0.00,,,0.03,Wunderground v.1.15,2013-11-22 11:50:00,
2013-11-22 06:54:00,50.9,49.5,30.19,NW,308,3.0,4.0,95,0.00,,,0.03,Wunderground v.1.15,2013-11-22 11:54:00,
2013-11-22 06:58:00,50.9,49.5,30.20,NW,308,2.0,4.0,95,0.00,,,0.03,Wunderground v.1.15,2013-11-22 11:58:00,
2013-11-22 07:00:00,50.8,49.4,30.20,NW,314,1.0,4.0,95,0.00,,,0.03,Wunderground v.1.15,2013-11-22 12:00:00,
2013-11-22 07:02:00,50.8,49.4,30.20,NW,314,1.0,4.0,95,0.00,,,0.03,Wunderground v.1.15,2013-11-22 12:02:00,
2013-11-22 07:04:00,50.8,49.4,30.20,WNW,298,1.0,4.0,95,0.00,,,0.03,Wunderground v.1.15,2013-11-22 12:04:00,
2013-11-22 07:10:00,50.8,49.4,30.20,NW,306,3.0,4.0,95,0.00,,,0.03,Wunderground v.1.15,2013-11-22 12:10:00,
2013-11-22 07:12:00,50.7,49.3,30.20,NW,318,3.0,4.0,95,0.00,,,0.03,Wunderground v.1.15,2013-11-22 12:12:00,
2013-11-22 07:14:00,50.7,49.3,30.20,WNW,303,3.0,5.0,95,0.00,,,0.03,Wunderground v.1.15,2013-11-22 12:14:00,
2013-11-22 07:18:00,50.6,49.2,30.20,WNW,301,4.0,5.0,95,0.00,,,0.03,Wunderground v.1.15,2013-11-22 12:18:00,
2013-11-22 07:20:00,50.7,49.3,30.21,WNW,302,4.0,5.0,95,0.00,,,0.03,Wunderground v.1.15,2013-11-22 12:20:00,
2013-11-22 07:22:00,50.6,49.2,30.21,WNW,291,4.0,5.0,95,0.00,,,0.03,Wunderground v.1.15,2013-11-22 12:22:00,
2013-11-22 07:24:00,50.6,49.2,30.21,WNW,303,4.0,5.0,95,0.00,,,0.03,Wunderground v.1.15,2013-11-22 12:24:00,
2013-11-22 07:30:00,50.5,49.1,30.21,NW,320,5.0,5.0,95,0.00,,,0.03,Wunderground v.1.15,2013-11-22 12:30:00,
2013-11-22 07:32:00,50.5,49.1,30.21,WNW,303,5.0,5.0,95,0.00,,,0.03,Wunderground v.1.15,2013-11-22 12:32:00,
2013-11-22 07:36:00,50.4,49.0,30.21,NW,312,5.0,7.0,95,0.00,,,0.03,Wunderground v.1.15,2013-11-22 12:36:00,
2013-11-22 07:38:00,50.3,48.9,30.21,NW,312,6.0,7.0,95,0.00,,,0.03,Wunderground v.1.15,2013-11-22 12:38:00,
2013-11-22 07:40:00,50.3,48.9,30.21,WNW,301,6.0,7.0,95,0.00,,,0.03,Wunderground v.1.15,2013-11-22 12:40:00,
2013-11-22 07:42:00,50.3,48.9,30.21,NW,312,6.0,7.0,95,0.00,,,0.03,Wunderground v.1.15,2013-11-22 12:42:00,
2013-11-22 07:46:00,50.1,48.7,30.22,NW,309,6.0,7.0,95,0.00,,,0.03,Wunderground v.1.15,2013-11-22 12:46:00,
2013-11-22 07:48:00,50.0,48.6,30.22,NW,320,6.0,8.0,95,0.00,,,0.03,Wunderground v.1.15,2013-11-22 12:48:00,
2013-11-22 07:52:00,50.0,48.6,30.22,NW,316,7.0,8.0,95,0.00,,,0.03,Wunderground v.1.15,2013-11-22 12:52:00,
2013-11-22 07:54:00,49.9,48.5,30.22,NW,304,8.0,8.0,95,0.00,,,0.03,Wunderground v.1.15,2013-11-22 12:54:00,
2013-11-22 07:58:00,49.9,48.5,30.22,NW,313,8.0,8.0,95,0.00,,,0.03,Wunderground v.1.15,2013-11-22 12:58:00,
2013-11-22 08:00:00,49.9,48.5,30.22,NW,326,8.0,8.0,95,0.00,,,0.03,Wunderground v.1.15,2013-11-22 13:00:00,
2013-11-22 08:04:00,49.8,48.4,30.23,WNW,300,7.0,9.0,95,0.00,,,0.03,Wunderground v.1.15,2013-11-22 13:04:00,
2013-11-22 08:06:00,49.8,48.4,30.23,NW,314,7.0,9.0,95,0.00,,,0.03,Wunderground v.1.15,2013-11-22 13:06:00,
2013-11-22 08:08:00,49.7,48.3,30.23,NW,326,7.0,9.0,95,0.00,,,0.03,Wunderground v.1.15,2013-11-22 13:08:00,
2013-11-22 08:10:00,49.7,48.3,30.23,NW,314,7.0,9.0,95,0.00,,,0.03,Wunderground v.1.15,2013-11-22 13:10:00,
2013-11-22 08:12:00,49.7,48.3,30.23,NNW,343,7.0,7.0,95,0.00,,,0.03,Wunderground v.1.15,2013-11-22 13:12:00,
2013-11-22 08:14:00,49.7,48.3,30.23,NNW,337,7.0,7.0,95,0.00,,,0.03,Wunderground v.1.15,2013-11-22 13:14:00,
2013-11-22 08:20:00,49.6,48.2,30.23,NW,321,6.0,7.0,95,0.00,,,0.03,Wunderground v.1.15,2013-11-22 13:20:00,
2013-11-22 08:22:00,49.6,48.2,30.23,NW,307,5.0,6.0,95,0.00,,,0.03,Wunderground v.1.15,2013-11-22 13:22:00,
2013-11-22 08:26:00,49.6,48.2,30.23,NW,315,6.0,7.0,95,0.00,,,0.03,Wunderground v.1.15,2013-11-22 13:26:00,
2013-11-22 08:28:00,49.6,48.2,30.24,NW,322,6.0,7.0,95,0.00,,,0.03,Wunderground v.1.15,2013-11-22 13:28:00,
2013-11-22 08:30:00,49.6,48.2,30.24,NW,307,6.0,7.0,95,0.00,,,0.03,Wunderground v.1.15,2013-11-22 13:30:00,
2013-11-22 08:34:00,49.5,48.1,30.24,NNW,337,6.0,9.0,95,0.00,,,0.03,Wunderground v.1.15,2013-11-22 13:34:00,
2013-11-22 08:38:00,49.4,48.0,30.24,NW,310,6.0,9.0,95,0.00,,,0.03,Wunderground v.1.15,2013-11-22 13:38:00,
2013-11-22 08:40:00,49.4,48.0,30.24,NW,315,6.0,9.0,95,0.00,,,0.03,Wunderground v.1.15,2013-11-22 13:40:00,
2013-11-22 08:44:00,49.4,48.0,30.24,WNW,299,7.0,8.0,95,0.00,,,0.03,Wunderground v.1.15,2013-11-22 13:44:00,
2013-11-22 08:46:00,49.3,47.9,30.24,NNW,329,7.0,10.0,95,0.00,,,0.03,Wunderground v.1.15,2013-11-22 13:46:00,
2013-11-22 08:48:00,49.3,47.9,30.24,NW,314,7.0,10.0,95,0.00,,,0.03,Wunderground v.1.15,2013-11-22 13:48:00,
2013-11-22 08:50:00,49.3,47.9,30.24,NNW,329,7.0,10.0,95,0.00,,,0.03,Wunderground v.1.15,2013-11-22 13:50:00,
2013-11-22 08:52:00,49.3,47.9,30.24,NW,314,7.0,7.0,95,0.00,,,0.03,Wunderground v.1.15,2013-11-22 13:52:00,
2013-11-22 08:56:00,49.2,47.8,30.25,WNW,299,7.0,10.0,95,0.00,,,0.03,Wunderground v.1.15,2013-11-22 13:56:00,
2013-11-22 08:58:00,49.2,47.8,30.25,NW,312,7.0,10.0,95,0.00,,,0.03,Wunderground v.1.15,2013-11-22 13:58:00,
2013-11-22 09:00:00,49.2,47.8,30.25,NW,324,7.0,10.0,95,0.00,,,0.03,Wunderground v.1.15,2013-11-22 14:00:00,
2013-11-22 09:02:00,49.1,47.7,30.25,NNW,345,7.0,7.0,95,0.00,,,0.03,Wunderground v.1.15,2013-11-22 14:02:00,
2013-11-22 09:04:00,49.1,47.7,30.25,NW,310,7.0,8.0,95,0.00,,,0.03,Wunderground v.1.15,2013-11-22 14:04:00,
2013-11-22 09:06:00,49.0,47.6,30.25,NNW,337,7.0,10.0,95,0.00,,,0.03,Wunderground v.1.15,2013-11-22 14:06:00,
2013-11-22 09:08:00,48.9,47.5,30.25,North,354,8.0,11.0,95,0.00,,,0.03,Wunderground v.1.15,2013-11-22 14:08:00,
2013-11-22 09:10:00,48.8,47.4,30.24,NW,318,8.0,11.0,95,0.00,,,0.03,Wunderground v.1.15,2013-11-22 14:10:00,
2013-11-22 09:12:00,48.8,47.4,30.25,NW,310,8.0,8.0,95,0.00,,,0.03,Wunderground v.1.15,2013-11-22 14:12:00,
2013-11-22 09:18:00,48.7,47.3,30.24,NNW,345,7.0,8.0,95,0.00,,,0.03,Wunderground v.1.15,2013-11-22 14:18:00,
2013-11-22 09:20:00,48.6,47.2,30.24,NNW,330,7.0,8.0,95,0.00,,,0.03,Wunderground v.1.15,2013-11-22 14:20:00,
2013-11-22 09:22:00,48.6,47.2,30.24,NNW,329,7.0,7.0,95,0.00,,,0.03,Wunderground v.1.15,2013-11-22 14:22:00,
2013-11-22 09:28:00,48.5,47.1,30.24,NNW,332,7.0,8.0,95,0.00,,,0.03,Wunderground v.1.15,2013-11-22 14:28:00,
2013-11-22 09:30:00,48.5,47.1,30.25,NNE,16,6.0,8.0,95,0.00,,,0.03,Wunderground v.1.15,2013-11-22 14:30:00,
2013-11-22 09:32:00,48.5,47.1,30.25,NW,313,6.0,8.0,95,0.00,,,0.03,Wunderground v.1.15,2013-11-22 14:32:00,
2013-11-22 09:34:00,48.5,47.1,30.25,North,354,7.0,8.0,95,0.00,,,0.03,Wunderground v.1.15,2013-11-22 14:34:00,
2013-11-22 09:38:00,48.5,46.9,30.25,NNW,336,7.0,8.0,94,0.00,,,0.03,Wunderground v.1.15,2013-11-22 14:38:00,
2013-11-22 09:40:00,48.6,47.0,30.25,NNW,327,7.0,8.0,94,0.00,,,0.03,Wunderground v.1.15,2013-11-22 14:40:00,
2013-11-22 09:46:00,48.6,47.0,30.25,NNW,331,6.0,9.0,94,0.00,,,0.03,Wunderground v.1.15,2013-11-22 14:46:00,
2013-11-22 09:48:00,48.5,46.9,30.25,NNW,332,6.0,9.0,94,0.00,,,0.03,Wunderground v.1.15,2013-11-22 14:48:00,
2013-11-22 09:50:00,48.5,46.9,30.26,NNW,330,6.0,9.0,94,0.00,,,0.03,Wunderground v.1.15,2013-11-22 14:50:00,
2013-11-22 09:52:00,48.5,46.9,30.26,NNW,348,6.0,9.0,94,0.00,,,0.03,Wunderground v.1.15,2013-11-22 14:52:00,
2013-11-22 09:58:00,48.6,47.0,30.26,NW,324,6.0,9.0,94,0.00,,,0.03,Wunderground v.1.15,2013-11-22 14:58:00,
2013-11-22 10:00:00,48.5,46.9,30.26,NNW,343,7.0,9.0,94,0.00,,,0.03,Wunderground v.1.15,2013-11-22 15:00:00,
2013-11-22 10:04:00,48.5,46.9,30.27,NW,318,7.0,12.0,94,0.00,,,0.03,Wunderground v.1.15,2013-11-22 15:04:00,
2013-11-22 10:06:00,48.5,46.9,30.27,NW,319,7.0,12.0,94,0.00,,,0.03,Wunderground v.1.15,2013-11-22 15:06:00,
2013-11-22 10:08:00,48.4,46.5,30.27,NW,310,8.0,12.0,93,0.00,,,0.03,Wunderground v.1.15,2013-11-22 15:08:00,
2013-11-22 10:12:00,48.4,46.5,30.27,NNW,328,8.0,9.0,93,0.00,,,0.03,Wunderground v.1.15,2013-11-22 15:12:00,
2013-11-22 10:14:00,48.4,46.5,30.27,NNW,339,8.0,10.0,93,0.00,,,0.03,Wunderground v.1.15,2013-11-22 15:14:00,
2013-11-22 10:16:00,48.4,46.5,30.27,NNW,341,8.0,11.0,93,0.00,,,0.03,Wunderground v.1.15,2013-11-22 15:16:00,
2013-11-22 10:20:00,48.5,46.3,30.27,North,354,9.0,11.0,92,0.00,,,0.03,Wunderground v.1.15,2013-11-22 15:20:00,
2013-11-22 10:22:00,48.5,46.3,30.27,North,354,8.0,8.0,92,0.00,,,0.03,Wunderground v.1.15,2013-11-22 15:22:00,
2013-11-22 10:24:00,48.6,46.4,30.27,NNW,338,8.0,8.0,92,0.00,,,0.03,Wunderground v.1.15,2013-11-22 15:24:00,
2013-11-22 10:26:00,48.6,46.4,30.27,NW,316,8.0,11.0,92,0.00,,,0.03,Wunderground v.1.15,2013-11-22 15:26:00,
2013-11-22 10:30:00,48.6,46.4,30.28,NW,323,8.0,11.0,92,0.00,,,0.03,Wunderground v.1.15,2013-11-22 15:30:00,
2013-11-22 10:34:00,48.6,46.1,30.28,North,349,7.0,9.0,91,0.00,,,0.03,Wunderground v.1.15,2013-11-22 15:34:00,
2013-11-22 10:36:00,48.6,46.1,30.28,NNW,347,7.0,9.0,91,0.00,,,0.03,Wunderground v.1.15,2013-11-22 15:36:00,
2013-11-22 10:38:00,48.6,46.1,30.28,NW,316,7.0,9.0,91,0.00,,,0.03,Wunderground v.1.15,2013-11-22 15:38:00,
2013-11-22 10:40:00,48.6,46.1,30.29,NNW,328,7.0,11.0,91,0.00,,,0.03,Wunderground v.1.15,2013-11-22 15:40:00,
2013-11-22 10:42:00,48.6,46.1,30.29,North,354,7.0,7.0,91,0.00,,,0.03,Wunderground v.1.15,2013-11-22 15:42:00,
2013-11-22 10:46:00,48.5,46.0,30.29,NW,322,7.0,8.0,91,0.00,,,0.03,Wunderground v.1.15,2013-11-22 15:46:00,
2013-11-22 10:48:00,48.5,46.3,30.29,NW,305,7.0,8.0,92,0.00,,,0.03,Wunderground v.1.15,2013-11-22 15:48:00,
2013-11-22 10:52:00,48.3,46.1,30.29,NW,323,7.0,7.0,92,0.00,,,0.03,Wunderground v.1.15,2013-11-22 15:52:00,
2013-11-22 10:56:00,48.3,46.1,30.29,NNW,334,7.0,7.0,92,0.00,,,0.03,Wunderground v.1.15,2013-11-22 15:56:00,
2013-11-22 10:58:00,48.3,46.1,30.29,NNW,327,7.0,8.0,92,0.00,,,0.03,Wunderground v.1.15,2013-11-22 15:58:00,
2013-11-22 11:00:00,48.2,46.0,30.29,NNW,343,8.0,8.0,92,0.00,,,0.03,Wunderground v.1.15,2013-11-22 16:00:00,
2013-11-22 11:02:00,48.2,46.0,30.29,NNW,332,8.0,9.0,92,0.00,,,0.03,Wunderground v.1.15,2013-11-22 16:02:00,
2013-11-22 11:04:00,48.2,46.0,30.29,NNW,332,8.0,9.0,92,0.00,,,0.03,Wunderground v.1.15,2013-11-22 16:04:00,
2013-11-22 11:06:00,48.2,45.7,30.29,North,4,8.0,9.0,91,0.00,,,0.03,Wunderground v.1.15,2013-11-22 16:06:00,
2013-11-22 11:08:00,48.1,45.6,30.29,NNW,330,8.0,9.0,91,0.00,,,0.03,Wunderground v.1.15,2013-11-22 16:08:00,
2013-11-22 11:12:00,48.1,45.6,30.29,NW,308,8.0,8.0,91,0.00,,,0.03,Wunderground v.1.15,2013-11-22 16:12:00,
2013-11-22 11:14:00,48.0,45.5,30.29,NNW,329,8.0,8.0,91,0.00,,,0.03,Wunderground v.1.15,2013-11-22 16:14:00,
2013-11-22 11:16:00,48.0,45.5,30.29,WNW,301,7.0,8.0,91,0.00,,,0.03,Wunderground v.1.15,2013-11-22 16:16:00,
2013-11-22 11:18:00,47.9,45.4,30.29,NNW,334,7.0,8.0,91,0.00,,,0.03,Wunderground v.1.15,2013-11-22 16:18:00,
2013-11-22 11:22:00,47.9,45.4,30.29,NNW,337,7.0,12.0,91,0.00,,,0.03,Wunderground v.1.15,2013-11-22 16:22:00,
2013-11-22 11:24:00,47.8,45.3,30.29,NNW,332,8.0,12.0,91,0.00,,,0.03,Wunderground v.1.15,2013-11-22 16:24:00,
2013-11-22 11:26:00,47.8,45.3,30.29,North,359,8.0,12.0,91,0.00,,,0.03,Wunderground v.1.15,2013-11-22 16:26:00,
2013-11-22 11:28:00,47.7,45.5,30.28,NNW,338,9.0,12.0,92,0.00,,,0.03,Wunderground v.1.15,2013-11-22 16:28:00,
2013-11-22 11:30:00,47.6,45.4,30.29,NW,316,9.0,16.0,92,0.00,,,0.03,Wunderground v.1.15,2013-11-22 16:30:00,
2013-11-22 11:34:00,47.4,45.2,30.29,North,8,9.0,9.0,92,0.00,,,0.03,Wunderground v.1.15,2013-11-22 16:34:00,
2013-11-22 11:36:00,47.3,45.1,30.29,NNW,328,8.0,9.0,92,0.00,,,0.03,Wunderground v.1.15,2013-11-22 16:36:00,
2013-11-22 11:38:00,47.2,44.7,30.29,NW,305,9.0,9.0,91,0.00,,,0.03,Wunderground v.1.15,2013-11-22 16:38:00,
2013-11-22 11:40:00,47.1,44.9,30.29,North,10,9.0,9.0,92,0.00,,,0.03,Wunderground v.1.15,2013-11-22 16:40:00,
2013-11-22 11:42:00,47.0,44.8,30.29,NNW,347,9.0,12.0,92,0.00,,,0.03,Wunderground v.1.15,2013-11-22 16:42:00,
2013-11-22 11:44:00,46.9,44.7,30.29,North,359,10.0,12.0,92,0.00,,,0.03,Wunderground v.1.15,2013-11-22 16:44:00,
2013-11-22 11:46:00,46.7,44.5,30.29,NNW,329,10.0,12.0,92,0.00,,,0.03,Wunderground v.1.15,2013-11-22 16:46:00,
2013-11-22 11:50:00,46.4,44.2,30.29,North,354,10.0,12.0,92,0.00,,,0.03,Wunderground v.1.15,2013-11-22 16:50:00,
2013-11-22 11:52:00,46.2,44.3,30.29,NW,323,10.0,10.0,93,0.00,,,0.03,Wunderground v.1.15,2013-11-22 16:52:00,
2013-11-22 11:56:00,46.0,44.1,30.29,NNW,329,9.0,10.0,93,0.00,,,0.03,Wunderground v.1.15,2013-11-22 16:56:00,
2013-11-22 11:58:00,45.9,44.0,30.30,NNW,345,9.0,10.0,93,0.00,,,0.03,Wunderground v.1.15,2013-11-22 16:58:00,
2013-11-22 12:02:00,45.7,43.5,30.30,North,354,9.0,9.0,92,0.00,,,0.03,Wunderground v.1.15,2013-11-22 17:02:00,
2013-11-22 12:04:00,45.6,43.4,30.30,North,4,9.0,9.0,92,0.00,,,0.03,Wunderground v.1.15,2013-11-22 17:04:00,
2013-11-22 12:08:00,45.6,43.4,30.30,NW,326,7.0,9.0,92,0.00,,,0.03,Wunderground v.1.15,2013-11-22 17:08:00,
2013-11-22 12:12:00,45.4,43.5,30.30,NW,324,7.0,12.0,93,0.00,,,0.03,Wunderground v.1.15,2013-11-22 17:12:00,
2013-11-22 12:14:00,45.4,43.2,30.30,NW,320,8.0,12.0,92,0.00,,,0.03,Wunderground v.1.15,2013-11-22 17:14:00,
2013-11-22 12:18:00,45.3,43.1,30.30,NNW,346,10.0,12.0,92,0.00,,,0.03,Wunderground v.1.15,2013-11-22 17:18:00,
2013-11-22 12:20:00,45.2,43.0,30.30,NW,313,10.0,12.0,92,0.00,,,0.03,Wunderground v.1.15,2013-11-22 17:20:00,
2013-11-22 12:22:00,45.2,43.0,30.30,NNW,332,10.0,10.0,92,0.00,,,0.03,Wunderground v.1.15,2013-11-22 17:22:00,
2013-11-22 12:26:00,45.1,42.9,30.30,NW,323,10.0,12.0,92,0.00,,,0.03,Wunderground v.1.15,2013-11-22 17:26:00,
2013-11-22 12:28:00,45.1,42.9,30.30,North,359,9.0,12.0,92,0.00,,,0.03,Wunderground v.1.15,2013-11-22 17:28:00,
2013-11-22 12:30:00,45.1,42.9,30.30,North,8,9.0,12.0,92,0.00,,,0.03,Wunderground v.1.15,2013-11-22 17:30:00,
2013-11-22 12:32:00,45.0,42.8,30.30,North,4,9.0,10.0,92,0.00,,,0.03,Wunderground v.1.15,2013-11-22 17:32:00,
2013-11-22 12:34:00,45.0,42.8,30.30,NNW,327,10.0,14.0,92,0.00,,,0.03,Wunderground v.1.15,2013-11-22 17:34:00,
2013-11-22 12:36:00,45.0,42.8,30.30,North,4,10.0,14.0,92,0.00,,,0.03,Wunderground v.1.15,2013-11-22 17:36:00,
2013-11-22 12:38:00,45.0,42.8,30.30,NW,319,11.0,14.0,92,0.00,,,0.03,Wunderground v.1.15,2013-11-22 17:38:00,
2013-11-22 12:44:00,44.9,42.7,30.30,NNW,337,9.0,9.0,92,0.00,,,0.03,Wunderground v.1.15,2013-11-22 17:44:00,
2013-11-22 12:46:00,44.9,42.7,30.30,NW,312,8.0,9.0,92,0.00,,,0.03,Wunderground v.1.15,2013-11-22 17:46:00,
2013-11-22 12:48:00,44.8,42.6,30.30,North,354,8.0,9.0,92,0.00,,,0.03,Wunderground v.1.15,2013-11-22 17:48:00,
2013-11-22 12:50:00,44.7,42.5,30.30,NNE,24,8.0,9.0,92,0.00,,,0.03,Wunderground v.1.15,2013-11-22 17:50:00,
2013-11-22 12:54:00,44.5,42.3,30.30,NNE,14,9.0,12.0,92,0.00,,,0.03,Wunderground v.1.15,2013-11-22 17:54:00,
2013-11-22 12:56:00,44.4,41.9,30.30,NNW,331,10.0,12.0,91,0.00,,,0.03,Wunderground v.1.15,2013-11-22 17:56:00,
2013-11-22 12:58:00,44.4,41.7,30.30,NNW,347,10.0,12.0,90,0.00,,,0.03,Wunderground v.1.15,2013-11-22 17:58:00,
2013-11-22 13:00:00,44.5,42.0,30.30,North,9,11.0,12.0,91,0.00,,,0.03,Wunderground v.1.15,2013-11-22 18:00:00,
2013-11-22 13:02:00,44.5,42.0,30.30,NNW,337,10.0,10.0,91,0.00,,,0.03,Wunderground v.1.15,2013-11-22 18:02:00,
2013-11-22 13:04:00,44.6,42.1,30.30,NW,324,9.0,12.0,91,0.00,,,0.03,Wunderground v.1.15,2013-11-22 18:04:00,
2013-11-22 13:08:00,44.7,41.9,30.30,NE,43,9.0,12.0,90,0.00,,,0.03,Wunderground v.1.15,2013-11-22 18:08:00,
2013-11-22 13:10:00,44.7,41.9,30.30,North,9,9.0,12.0,90,0.00,,,0.03,Wunderground v.1.15,2013-11-22 18:10:00,
2013-11-22 13:14:00,44.6,41.6,30.30,North,354,10.0,10.0,89,0.00,,,0.03,Wunderground v.1.15,2013-11-22 18:14:00,
2013-11-22 13:16:00,44.5,41.2,30.30,NNE,23,10.0,11.0,88,0.00,,,0.03,Wunderground v.1.15,2013-11-22 18:16:00,
2013-11-22 13:18:00,44.5,41.5,30.30,NNW,347,10.0,11.0,89,0.00,,,0.03,Wunderground v.1.15,2013-11-22 18:18:00,
2013-11-22 13:22:00,44.5,41.2,30.31,NNW,345,11.0,11.0,88,0.00,,,0.03,Wunderground v.1.15,2013-11-22 18:22:00,
2013-11-22 13:24:00,44.5,41.2,30.31,NNW,345,10.0,11.0,88,0.00,,,0.03,Wunderground v.1.15,2013-11-22 18:24:00,
2013-11-22 13:30:00,44.2,40.9,30.31,NNE,20,11.0,12.0,88,0.00,,,0.03,Wunderground v.1.15,2013-11-22 18:30:00,
2013-11-22 13:32:00,44.1,40.8,30.31,NNE,12,12.0,16.0,88,0.00,,,0.03,Wunderground v.1.15,2013-11-22 18:32:00,
2013-11-22 13:36:00,43.9,40.9,30.31,NNE,15,11.0,16.0,89,0.00,,,0.03,Wunderground v.1.15,2013-11-22 18:36:00,
2013-11-22 13:38:00,43.8,40.8,30.31,NNW,339,11.0,16.0,89,0.00,,,0.03,Wunderground v.1.15,2013-11-22 18:38:00,
2013-11-22 13:40:00,43.8,41.1,30.31,NNW,342,10.0,16.0,90,0.00,,,0.03,Wunderground v.1.15,2013-11-22 18:40:00,
2013-11-22 13:46:00,43.6,40.9,30.31,NNW,348,10.0,10.0,90,0.00,,,0.03,Wunderground v.1.15,2013-11-22 18:46:00,
2013-11-22 13:48:00,43.5,40.8,30.31,NNW,345,10.0,15.0,90,0.00,,,0.03,Wunderground v.1.15,2013-11-22 18:48:00,
2013-11-22 13:50:00,43.5,40.8,30.31,NNE,27,10.0,15.0,90,0.00,,,0.03,Wunderground v.1.15,2013-11-22 18:50:00,
2013-11-22 13:52:00,43.5,40.8,30.32,NNW,337,11.0,12.0,90,0.00,,,0.03,Wunderground v.1.15,2013-11-22 18:52:00,
2013-11-22 13:56:00,43.4,40.7,30.31,North,359,11.0,12.0,90,0.00,,,0.03,Wunderground v.1.15,2013-11-22 18:56:00,
2013-11-22 14:00:00,43.5,40.5,30.32,NW,323,10.0,12.0,89,0.00,,,0.03,Wunderground v.1.15,2013-11-22 19:00:00,
2013-11-22 14:02:00,43.6,40.6,30.32,NNW,336,10.0,10.0,89,0.00,,,0.03,Wunderground v.1.15,2013-11-22 19:02:00,
2013-11-22 14:04:00,43.6,40.6,30.31,NNW,341,9.0,11.0,89,0.00,,,0.03,Wunderground v.1.15,2013-11-22 19:04:00,
2013-11-22 14:06:00,43.6,40.3,30.31,North,4,9.0,11.0,88,0.00,,,0.03,Wunderground v.1.15,2013-11-22 19:06:00,
2013-11-22 14:08:00,43.6,40.3,30.32,North,359,9.0,11.0,88,0.00,,,0.03,Wunderground v.1.15,2013-11-22 19:08:00,
2013-11-22 14:12:00,43.6,40.3,30.32,NNW,330,8.0,11.0,88,0.00,,,0.03,Wunderground v.1.15,2013-11-22 19:12:00,
2013-11-22 14:16:00,43.6,40.3,30.32,NW,317,9.0,11.0,88,0.00,,,0.03,Wunderground v.1.15,2013-11-22 19:16:00,
2013-11-22 14:18:00,43.4,40.1,30.32,NW,322,10.0,11.0,88,0.00,,,0.03,Wunderground v.1.15,2013-11-22 19:18:00,
2013-11-22 14:20:00,43.4,40.1,30.32,North,359,11.0,11.0,88,0.00,,,0.03,Wunderground v.1.15,2013-11-22 19:20:00,
2013-11-22 14:22:00,43.4,40.1,30.32,North,354,11.0,11.0,88,0.00,,,0.03,Wunderground v.1.15,2013-11-22 19:22:00,
2013-11-22 14:24:00,43.3,40.0,30.33,NNW,337,11.0,11.0,88,0.00,,,0.03,Wunderground v.1.15,2013-11-22 19:24:00,
2013-11-22 14:28:00,43.3,40.0,30.33,North,349,10.0,11.0,88,0.00,,,0.03,Wunderground v.1.15,2013-11-22 19:28:00,
2013-11-22 14:30:00,43.3,40.0,30.33,North,359,10.0,11.0,88,0.00,,,0.03,Wunderground v.1.15,2013-11-22 19:30:00,
2013-11-22 14:34:00,43.2,39.9,30.33,North,359,9.0,10.0,88,0.00,,,0.03,Wunderground v.1.15,2013-11-22 19:34:00,
2013-11-22 14:36:00,43.2,39.9,30.33,NNW,347,8.0,10.0,88,0.00,,,0.03,Wunderground v.1.15,2013-11-22 19:36:00,
2013-11-22 14:38:00,43.2,39.9,30.33,NE,37,7.0,10.0,88,0.00,,,0.03,Wunderground v.1.15,2013-11-22 19:38:00,
2013-11-22 14:40:00,43.2,39.9,30.33,NNE,31,7.0,10.0,88,0.00,,,0.03,Wunderground v.1.15,2013-11-22 19:40:00,
2013-11-22 14:44:00,43.1,40.1,30.33,NNW,337,6.0,6.0,89,0.00,,,0.03,Wunderground v.1.15,2013-11-22 19:44:00,
2013-11-22 14:46:00,43.0,40.0,30.33,NW,326,6.0,6.0,89,0.00,,,0.03,Wunderground v.1.15,2013-11-22 19:46:00,
2013-11-22 14:48:00,43.0,40.0,30.33,North,359,6.0,11.0,89,0.00,,,0.03,Wunderground v.1.15,2013-11-22 19:48:00,
2013-11-22 14:50:00,42.9,39.6,30.33,NE,35,7.0,11.0,88,0.00,,,0.03,Wunderground v.1.15,2013-11-22 19:50:00,
2013-11-22 14:54:00,42.8,39.5,30.33,North,9,9.0,14.0,88,0.00,,,0.03,Wunderground v.1.15,2013-11-22 19:54:00,
2013-11-22 14:56:00,42.7,39.4,30.33,NNE,33,10.0,14.0,88,0.00,,,0.03,Wunderground v.1.15,2013-11-22 19:56:00,
2013-11-22 15:00:00,42.7,39.4,30.33,NNE,15,9.0,14.0,88,0.00,,,0.03,Wunderground v.1.15,2013-11-22 20:00:00,
2013-11-22 15:04:00,42.6,39.3,30.33,North,4,9.0,13.0,88,0.00,,,0.03,Wunderground v.1.15,2013-11-22 20:04:00,
2013-11-22 15:06:00,42.5,39.2,30.33,NNE,16,8.0,14.0,88,0.00,,,0.03,Wunderground v.1.15,2013-11-22 20:06:00,
2013-11-22 15:08:00,42.5,39.2,30.33,NNE,15,9.0,14.0,88,0.00,,,0.03,Wunderground v.1.15,2013-11-22 20:08:00,
2013-11-22 15:14:00,42.6,39.3,30.33,North,4,8.0,8.0,88,0.00,,,0.03,Wunderground v.1.15,2013-11-22 20:14:00,
2013-11-22 15:16:00,42.6,39.0,30.33,North,349,8.0,13.0,87,0.00,,,0.03,Wunderground v.1.15,2013-11-22 20:16:00,
2013-11-22 15:20:00,42.7,39.4,30.33,NE,39,8.0,13.0,88,0.00,,,0.03,Wunderground v.1.15,2013-11-22 20:20:00,
2013-11-22 15:22:00,42.7,39.1,30.33,North,354,8.0,14.0,87,0.00,,,0.03,Wunderground v.1.15,2013-11-22 20:22:00,
2013-11-22 15:24:00,42.7,38.8,30.33,NNE,25,9.0,14.0,86,0.00,,,0.03,Wunderground v.1.15,2013-11-22 20:24:00,
2013-11-22 15:26:00,42.7,38.8,30.33,North,359,9.0,14.0,86,0.00,,,0.03,Wunderground v.1.15,2013-11-22 20:26:00,
2013-11-22 15:30:00,42.6,38.7,30.33,NNW,348,9.0,14.0,86,0.00,,,0.03,Wunderground v.1.15,2013-11-22 20:30:00,
2013-11-22 15:34:00,42.4,38.8,30.34,North,4,10.0,10.0,87,0.00,,,0.03,Wunderground v.1.15,2013-11-22 20:34:00,
2013-11-22 15:36:00,42.4,38.8,30.34,NW,326,10.0,10.0,87,0.00,,,0.03,Wunderground v.1.15,2013-11-22 20:36:00,
2013-11-22 15:42:00,42.3,38.7,30.34,NNW,347,9.0,9.0,87,0.00,,,0.03,Wunderground v.1.15,2013-11-22 20:42:00,
2013-11-22 15:44:00,42.3,38.7,30.34,NNE,14,8.0,9.0,87,0.00,,,0.03,Wunderground v.1.15,2013-11-22 20:44:00,
2013-11-22 15:46:00,42.4,38.8,30.34,NNW,331,8.0,9.0,87,0.00,,,0.03,Wunderground v.1.15,2013-11-22 20:46:00,
2013-11-22 15:50:00,42.3,38.4,30.34,NNW,341,8.0,9.0,86,0.00,,,0.03,Wunderground v.1.15,2013-11-22 20:50:00,
2013-11-22 15:54:00,42.3,38.4,30.34,North,8,8.0,13.0,86,0.00,,,0.03,Wunderground v.1.15,2013-11-22 20:54:00,
2013-11-22 15:58:00,42.3,38.4,30.34,North,8,8.0,13.0,86,0.00,,,0.03,Wunderground v.1.15,2013-11-22 20:58:00,
2013-11-22 16:00:00,42.3,38.4,30.34,NNE,24,8.0,13.0,86,0.00,,,0.03,Wunderground v.1.15,2013-11-22 21:00:00,
2013-11-22 16:06:00,42.1,38.2,30.34,NNW,339,8.0,11.0,86,0.00,,,0.03,Wunderground v.1.15,2013-11-22 21:06:00,
2013-11-22 16:08:00,42.1,38.2,30.34,North,359,8.0,11.0,86,0.00,,,0.03,Wunderground v.1.15,2013-11-22 21:08:00,
2013-11-22 16:10:00,42.1,38.2,30.34,NW,318,8.0,11.0,86,0.00,,,0.03,Wunderground v.1.15,2013-11-22 21:10:00,
2013-11-22 16:12:00,42.0,38.1,30.34,North,8,7.0,7.0,86,0.00,,,0.03,Wunderground v.1.15,2013-11-22 21:12:00,
2013-11-22 16:14:00,42.0,38.1,30.34,NNE,20,7.0,12.0,86,0.00,,,0.03,Wunderground v.1.15,2013-11-22 21:14:00,
2013-11-22 16:20:00,42.0,37.8,30.35,North,354,7.0,12.0,85,0.00,,,0.03,Wunderground v.1.15,2013-11-22 21:20:00,
2013-11-22 16:22:00,42.0,37.8,30.35,North,354,8.0,8.0,85,0.00,,,0.03,Wunderground v.1.15,2013-11-22 21:22:00,
2013-11-22 16:28:00,42.0,37.8,30.35,North,4,8.0,10.0,85,0.00,,,0.03,Wunderground v.1.15,2013-11-22 21:28:00,
2013-11-22 16:30:00,42.0,37.5,30.35,NNE,17,8.0,10.0,84,0.00,,,0.03,Wunderground v.1.15,2013-11-22 21:30:00,
2013-11-22 16:32:00,42.0,37.5,30.36,NNE,21,8.0,8.0,84,0.00,,,0.03,Wunderground v.1.15,2013-11-22 21:32:00,
2013-11-22 16:34:00,41.9,37.4,30.36,North,354,8.0,8.0,84,0.00,,,0.03,Wunderground v.1.15,2013-11-22 21:34:00,
2013-11-22 16:38:00,41.9,37.4,30.36,NNW,346,8.0,8.0,84,0.00,,,0.03,Wunderground v.1.15,2013-11-22 21:38:00,
2013-11-22 16:40:00,41.9,37.4,30.36,NNE,17,8.0,8.0,84,0.00,,,0.03,Wunderground v.1.15,2013-11-22 21:40:00,
2013-11-22 16:42:00,41.9,37.4,30.36,North,354,7.0,7.0,84,0.00,,,0.03,Wunderground v.1.15,2013-11-22 21:42:00,
2013-11-22 16:46:00,41.9,37.4,30.36,NNW,334,7.0,7.0,84,0.00,,,0.03,Wunderground v.1.15,2013-11-22 21:46:00,
2013-11-22 16:50:00,41.8,37.0,30.36,North,354,7.0,13.0,83,0.00,,,0.03,Wunderground v.1.15,2013-11-22 21:50:00,
2013-11-22 16:52:00,41.8,37.0,30.36,North,4,8.0,8.0,83,0.00,,,0.03,Wunderground v.1.15,2013-11-22 21:52:00,
2013-11-22 16:54:00,41.8,37.0,30.36,NNE,13,8.0,8.0,83,0.00,,,0.03,Wunderground v.1.15,2013-11-22 21:54:00,
2013-11-22 16:56:00,41.7,36.9,30.36,NW,311,8.0,12.0,83,0.00,,,0.03,Wunderground v.1.15,2013-11-22 21:56:00,
2013-11-22 17:00:00,41.6,36.8,30.36,NNW,336,9.0,12.0,83,0.00,,,0.03,Wunderground v.1.15,2013-11-22 22:00:00,
2013-11-22 17:02:00,41.6,36.8,30.37,North,4,9.0,10.0,83,0.00,,,0.03,Wunderground v.1.15,2013-11-22 22:02:00,
2013-11-22 17:06:00,41.6,36.8,30.37,NNE,22,9.0,13.0,83,0.00,,,0.03,Wunderground v.1.15,2013-11-22 22:06:00,
2013-11-22 17:08:00,41.5,36.7,30.37,North,359,8.0,13.0,83,0.00,,,0.03,Wunderground v.1.15,2013-11-22 22:08:00,
2013-11-22 17:12:00,41.5,36.7,30.38,North,8,8.0,8.0,83,0.00,,,0.03,Wunderground v.1.15,2013-11-22 22:12:00,
2013-11-22 17:14:00,41.5,36.7,30.38,NNW,331,8.0,12.0,83,0.00,,,0.03,Wunderground v.1.15,2013-11-22 22:14:00,
2013-11-22 17:18:00,41.4,36.9,30.38,NNW,345,8.0,12.0,84,0.00,,,0.03,Wunderground v.1.15,2013-11-22 22:18:00,
2013-11-22 17:24:00,41.3,36.8,30.38,North,354,7.0,8.0,84,0.00,,,0.03,Wunderground v.1.15,2013-11-22 22:24:00,
2013-11-22 17:26:00,41.3,36.8,30.38,North,354,8.0,9.0,84,0.00,,,0.03,Wunderground v.1.15,2013-11-22 22:26:00,
2013-11-22 17:30:00,41.2,36.7,30.38,NNW,337,8.0,10.0,84,0.00,,,0.03,Wunderground v.1.15,2013-11-22 22:30:00,
2013-11-22 17:32:00,41.2,36.7,30.38,North,4,8.0,8.0,84,0.00,,,0.03,Wunderground v.1.15,2013-11-22 22:32:00,
2013-11-22 17:34:00,41.1,36.6,30.39,NNE,18,8.0,8.0,84,0.00,,,0.03,Wunderground v.1.15,2013-11-22 22:34:00,
2013-11-22 17:36:00,41.1,36.6,30.39,North,359,8.0,8.0,84,0.00,,,0.03,Wunderground v.1.15,2013-11-22 22:36:00,
2013-11-22 17:38:00,41.1,36.3,30.39,NNW,341,8.0,8.0,83,0.00,,,0.03,Wunderground v.1.15,2013-11-22 22:38:00,
2013-11-22 17:40:00,41.1,36.3,30.39,NNE,25,8.0,8.0,83,0.00,,,0.03,Wunderground v.1.15,2013-11-22 22:40:00,
2013-11-22 17:42:00,41.1,36.6,30.40,North,349,7.0,7.0,84,0.00,,,0.03,Wunderground v.1.15,2013-11-22 22:42:00,
2013-11-22 17:44:00,41.0,36.2,30.40,NNW,343,7.0,9.0,83,0.00,,,0.03,Wunderground v.1.15,2013-11-22 22:44:00,
2013-11-22 17:46:00,41.0,36.2,30.40,North,8,8.0,11.0,83,0.00,,,0.03,Wunderground v.1.15,2013-11-22 22:46:00,
2013-11-22 17:52:00,40.9,35.8,30.40,North,4,10.0,10.0,82,0.00,,,0.03,Wunderground v.1.15,2013-11-22 22:52:00,
2013-11-22 17:54:00,40.9,35.8,30.40,NNW,342,10.0,10.0,82,0.00,,,0.03,Wunderground v.1.15,2013-11-22 22:54:00,
2013-11-22 17:58:00,40.8,35.7,30.40,North,359,10.0,11.0,82,0.00,,,0.03,Wunderground v.1.15,2013-11-22 22:58:00,
2013-11-22 18:00:00,40.8,35.7,30.40,NNW,337,10.0,11.0,82,0.00,,,0.03,Wunderground v.1.15,2013-11-22 23:00:00,
2013-11-22 18:06:00,40.6,35.5,30.40,North,354,10.0,13.0,82,0.00,,,0.03,Wunderground v.1.15,2013-11-22 23:06:00,
2013-11-22 18:08:00,40.6,35.5,30.41,NNE,12,10.0,13.0,82,0.00,,,0.03,Wunderground v.1.15,2013-11-22 23:08:00,
2013-11-22 18:12:00,40.5,35.4,30.41,NE,56,10.0,10.0,82,0.00,,,0.03,Wunderground v.1.15,2013-11-22 23:12:00,
2013-11-22 18:14:00,40.5,35.4,30.41,NNE,27,10.0,14.0,82,0.00,,,0.03,Wunderground v.1.15,2013-11-22 23:14:00,
2013-11-22 18:16:00,40.4,35.0,30.41,NW,314,10.0,14.0,81,0.00,,,0.03,Wunderground v.1.15,2013-11-22 23:16:00,
2013-11-22 18:18:00,40.4,35.0,30.41,NE,49,9.0,14.0,81,0.00,,,0.03,Wunderground v.1.15,2013-11-22 23:18:00,
2013-11-22 18:20:00,40.3,34.9,30.41,NNE,27,9.0,15.0,81,0.00,,,0.03,Wunderground v.1.15,2013-11-22 23:20:00,
2013-11-22 18:22:00,40.3,34.9,30.41,NNW,344,10.0,10.0,81,0.00,,,0.03,Wunderground v.1.15,2013-11-22 23:22:00,
2013-11-22 18:26:00,40.2,34.8,30.41,North,359,11.0,13.0,81,0.00,,,0.03,Wunderground v.1.15,2013-11-22 23:26:00,
2013-11-22 18:28:00,40.2,34.8,30.41,NNE,12,11.0,14.0,81,0.00,,,0.03,Wunderground v.1.15,2013-11-22 23:28:00,
2013-11-22 18:30:00,40.1,34.7,30.42,North,354,11.0,16.0,81,0.00,,,0.03,Wunderground v.1.15,2013-11-22 23:30:00,
2013-11-22 18:34:00,40.1,34.7,30.42,NNW,347,11.0,12.0,81,0.00,,,0.03,Wunderground v.1.15,2013-11-22 23:34:00,
2013-11-22 18:36:00,40.1,34.7,30.42,North,4,10.0,14.0,81,0.00,,,0.03,Wunderground v.1.15,2013-11-22 23:36:00,
2013-11-22 18:38:00,40.0,34.6,30.42,North,4,10.0,14.0,81,0.00,,,0.03,Wunderground v.1.15,2013-11-22 23:38:00,
2013-11-22 18:40:00,40.0,34.6,30.42,North,354,10.0,14.0,81,0.00,,,0.03,Wunderground v.1.15,2013-11-22 23:40:00,
2013-11-22 18:46:00,39.9,34.5,30.42,NNW,332,11.0,15.0,81,0.00,,,0.03,Wunderground v.1.15,2013-11-22 23:46:00,
2013-11-22 18:48:00,39.8,34.4,30.42,North,354,11.0,15.0,81,0.00,,,0.03,Wunderground v.1.15,2013-11-22 23:48:00,
2013-11-22 18:50:00,39.8,34.8,30.42,NNW,341,10.0,15.0,82,0.00,,,0.03,Wunderground v.1.15,2013-11-22 23:50:00,
2013-11-22 18:52:00,39.8,34.8,30.42,North,4,10.0,10.0,82,0.00,,,0.03,Wunderground v.1.15,2013-11-22 23:52:00,
2013-11-22 18:54:00,39.8,34.8,30.42,NNW,335,8.0,10.0,82,0.00,,,0.03,Wunderground v.1.15,2013-11-22 23:54:00,
2013-11-22 18:58:00,39.7,34.7,30.42,NNE,28,8.0,10.0,82,0.00,,,0.03,Wunderground v.1.15,2013-11-22 23:58:00,
2013-11-22 19:00:00,39.6,34.6,30.42,NE,41,7.0,14.0,82,0.00,,,0.03,Wunderground v.1.15,2013-11-23 00:00:00,
2013-11-22 19:02:00,39.6,34.2,30.43,North,359,9.0,13.0,81,0.00,,,0.03,Wunderground v.1.15,2013-11-23 00:02:00,
2013-11-22 19:06:00,39.4,34.4,30.43,North,354,11.0,13.0,82,0.00,,,0.03,Wunderground v.1.15,2013-11-23 00:06:00,
2013-11-22 19:08:00,39.4,34.1,30.43,North,8,11.0,13.0,81,0.00,,,0.03,Wunderground v.1.15,2013-11-23 00:08:00,
2013-11-22 19:10:00,39.3,34.0,30.43,NNE,28,11.0,13.0,81,0.00,,,0.03,Wunderground v.1.15,2013-11-23 00:10:00,
2013-11-22 19:12:00,39.3,34.0,30.43,NNW,335,10.0,10.0,81,0.00,,,0.03,Wunderground v.1.15,2013-11-23 00:12:00,
2013-11-22 19:16:00,39.2,33.9,30.43,NNE,24,10.0,12.0,81,0.00,,,0.03,Wunderground v.1.15,2013-11-23 00:16:00,
2013-11-22 19:22:00,39.0,34.0,30.43,North,354,11.0,11.0,82,0.00,,,0.03,Wunderground v.1.15,2013-11-23 00:22:00,
2013-11-22 19:28:00,38.9,33.9,30.43,North,354,9.0,11.0,82,0.00,,,0.03,Wunderground v.1.15,2013-11-23 00:28:00,
2013-11-22 19:30:00,38.9,33.9,30.43,NNW,338,9.0,11.0,82,0.00,,,0.03,Wunderground v.1.15,2013-11-23 00:30:00,
2013-11-22 19:32:00,38.8,33.8,30.43,NNW,335,9.0,12.0,82,0.00,,,0.03,Wunderground v.1.15,2013-11-23 00:32:00,
2013-11-22 19:34:00,38.8,33.8,30.44,NW,326,10.0,12.0,82,0.00,,,0.03,Wunderground v.1.15,2013-11-23 00:34:00,
2013-11-22 19:36:00,38.8,33.8,30.43,North,359,10.0,12.0,82,0.00,,,0.03,Wunderground v.1.15,2013-11-23 00:36:00,
2013-11-22 19:38:00,38.8,33.8,30.44,North,4,10.0,12.0,82,0.00,,,0.03,Wunderground v.1.15,2013-11-23 00:38:00,
2013-11-22 19:42:00,38.7,34.0,30.44,North,354,8.0,8.0,83,0.00,,,0.03,Wunderground v.1.15,2013-11-23 00:42:00,
2013-11-22 19:44:00,38.7,33.7,30.44,North,354,7.0,8.0,82,0.00,,,0.03,Wunderground v.1.15,2013-11-23 00:44:00,
2013-11-22 19:46:00,38.7,34.0,30.44,North,10,7.0,8.0,83,0.00,,,0.03,Wunderground v.1.15,2013-11-23 00:46:00,
2013-11-22 19:48:00,38.6,33.9,30.44,NNW,332,7.0,8.0,83,0.00,,,0.03,Wunderground v.1.15,2013-11-23 00:48:00,
2013-11-22 19:50:00,38.6,33.9,30.44,NNW,334,7.0,8.0,83,0.00,,,0.03,Wunderground v.1.15,2013-11-23 00:50:00,
2013-11-22 19:52:00,38.5,33.5,30.44,North,10,7.0,7.0,82,0.00,,,0.03,Wunderground v.1.15,2013-11-23 00:52:00,
2013-11-22 19:54:00,38.4,33.4,30.43,North,354,8.0,9.0,82,0.00,,,0.03,Wunderground v.1.15,2013-11-23 00:54:00,
2013-11-22 19:56:00,38.4,33.4,30.44,North,4,8.0,9.0,82,0.00,,,0.03,Wunderground v.1.15,2013-11-23 00:56:00,
2013-11-22 19:58:00,38.3,33.0,30.44,North,359,9.0,9.0,81,0.00,,,0.03,Wunderground v.1.15,2013-11-23 00:58:00,
2013-11-22 20:02:00,38.2,33.2,30.44,NNW,344,9.0,9.0,82,0.00,,,0.03,Wunderground v.1.15,2013-11-23 01:02:00,
2013-11-22 20:08:00,38.1,33.1,30.44,NNE,28,6.0,9.0,82,0.00,,,0.03,Wunderground v.1.15,2013-11-23 01:08:00,
2013-11-22 20:10:00,38.1,32.8,30.44,NNE,15,7.0,9.0,81,0.00,,,0.03,Wunderground v.1.15,2013-11-23 01:10:00,
2013-11-22 20:12:00,38.0,32.7,30.44,North,8,7.0,7.0,81,0.00,,,0.03,Wunderground v.1.15,2013-11-23 01:12:00,
2013-11-22 20:14:00,38.0,33.0,30.44,NNE,18,6.0,8.0,82,0.00,,,0.03,Wunderground v.1.15,2013-11-23 01:14:00,
2013-11-22 20:16:00,38.0,33.0,30.44,NNE,14,7.0,8.0,82,0.00,,,0.03,Wunderground v.1.15,2013-11-23 01:16:00,
2013-11-22 20:18:00,37.9,32.9,30.44,NNW,347,7.0,13.0,82,0.00,,,0.03,Wunderground v.1.15,2013-11-23 01:18:00,
2013-11-22 20:20:00,37.9,32.9,30.44,North,4,7.0,13.0,82,0.00,,,0.03,Wunderground v.1.15,2013-11-23 01:20:00,
2013-11-22 20:22:00,37.9,32.9,30.44,NNW,328,7.0,7.0,82,0.00,,,0.03,Wunderground v.1.15,2013-11-23 01:22:00,
2013-11-22 20:26:00,37.8,33.1,30.44,North,349,7.0,7.0,83,0.00,,,0.03,Wunderground v.1.15,2013-11-23 01:26:00,
2013-11-22 20:28:00,37.7,33.0,30.44,NNW,340,7.0,7.0,83,0.00,,,0.03,Wunderground v.1.15,2013-11-23 01:28:00,
2013-11-22 20:30:00,37.7,32.7,30.44,NNE,17,7.0,7.0,82,0.00,,,0.03,Wunderground v.1.15,2013-11-23 01:30:00,
2013-11-22 20:32:00,37.7,33.0,30.44,NNW,343,7.0,9.0,83,0.00,,,0.03,Wunderground v.1.15,2013-11-23 01:32:00,
2013-11-22 20:34:00,37.7,32.7,30.45,NE,36,7.0,9.0,82,0.00,,,0.03,Wunderground v.1.15,2013-11-23 01:34:00,
2013-11-22 20:36:00,37.6,32.9,30.45,NNW,336,7.0,9.0,83,0.00,,,0.03,Wunderground v.1.15,2013-11-23 01:36:00,
2013-11-22 20:38:00,37.6,32.9,30.45,NW,323,7.0,9.0,83,0.00,,,0.03,Wunderground v.1.15,2013-11-23 01:38:00,
2013-11-22 20:40:00,37.6,32.9,30.45,NNW,348,7.0,10.0,83,0.00,,,0.03,Wunderground v.1.15,2013-11-23 01:40:00,
2013-11-22 20:42:00,37.5,32.8,30.45,NNW,330,8.0,8.0,83,0.00,,,0.03,Wunderground v.1.15,2013-11-23 01:42:00,
2013-11-22 20:44:00,37.5,32.8,30.45,NW,318,7.0,8.0,83,0.00,,,0.03,Wunderground v.1.15,2013-11-23 01:44:00,
2013-11-22 20:46:00,37.5,32.8,30.45,North,9,8.0,9.0,83,0.00,,,0.03,Wunderground v.1.15,2013-11-23 01:46:00,
2013-11-22 20:48:00,37.5,32.8,30.45,North,359,8.0,9.0,83,0.00,,,0.03,Wunderground v.1.15,2013-11-23 01:48:00,
2013-11-22 20:50:00,37.5,32.5,30.46,North,4,8.0,9.0,82,0.00,,,0.03,Wunderground v.1.15,2013-11-23 01:50:00,
2013-11-22 20:52:00,37.4,32.7,30.46,NNW,327,8.0,8.0,83,0.00,,,0.03,Wunderground v.1.15,2013-11-23 01:52:00,
2013-11-22 20:54:00,37.4,32.7,30.46,NNW,330,8.0,11.0,83,0.00,,,0.03,Wunderground v.1.15,2013-11-23 01:54:00,
2013-11-22 20:56:00,37.4,32.7,30.46,NNW,347,8.0,11.0,83,0.00,,,0.03,Wunderground v.1.15,2013-11-23 01:56:00,
2013-11-22 21:00:00,37.3,32.3,30.45,NW,315,7.0,11.0,82,0.00,,,0.03,Wunderground v.1.15,2013-11-23 02:00:00,
2013-11-22 21:02:00,37.3,32.3,30.45,WNW,293,8.0,8.0,82,0.00,,,0.03,Wunderground v.1.15,2013-11-23 02:02:00,
2013-11-22 21:04:00,37.3,32.6,30.45,NNE,24,8.0,8.0,83,0.00,,,0.03,Wunderground v.1.15,2013-11-23 02:04:00,
2013-11-22 21:06:00,37.3,32.6,30.45,North,4,7.0,9.0,83,0.00,,,0.03,Wunderground v.1.15,2013-11-23 02:06:00,
2013-11-22 21:10:00,37.3,32.6,30.45,NNW,346,7.0,9.0,83,0.00,,,0.03,Wunderground v.1.15,2013-11-23 02:10:00,
2013-11-22 21:14:00,37.2,32.5,30.45,NNW,334,7.0,8.0,83,0.00,,,0.03,Wunderground v.1.15,2013-11-23 02:14:00,
2013-11-22 21:16:00,37.2,32.2,30.45,North,359,7.0,8.0,82,0.00,,,0.03,Wunderground v.1.15,2013-11-23 02:16:00,
2013-11-22 21:22:00,37.1,32.1,30.45,North,354,7.0,10.0,82,0.00,,,0.03,Wunderground v.1.15,2013-11-23 02:22:00,
2013-11-22 21:28:00,37.0,32.0,30.45,NE,43,7.0,10.0,82,0.00,,,0.03,Wunderground v.1.15,2013-11-23 02:28:00,
2013-11-22 21:30:00,37.0,32.0,30.45,NW,320,7.0,10.0,82,0.00,,,0.03,Wunderground v.1.15,2013-11-23 02:30:00,
2013-11-22 21:32:00,37.0,32.3,30.45,North,4,6.0,6.0,83,0.00,,,0.03,Wunderground v.1.15,2013-11-23 02:32:00,
2013-11-22 21:36:00,36.9,31.9,30.45,NNE,16,6.0,6.0,82,0.00,,,0.03,Wunderground v.1.15,2013-11-23 02:36:00,
2013-11-22 21:38:00,36.9,31.9,30.45,NE,45,6.0,8.0,82,0.00,,,0.03,Wunderground v.1.15,2013-11-23 02:38:00,
2013-11-22 21:44:00,36.8,31.8,30.44,North,354,7.0,10.0,82,0.00,,,0.03,Wunderground v.1.15,2013-11-23 02:44:00,
2013-11-22 21:48:00,36.8,32.1,30.44,NNE,15,7.0,10.0,83,0.00,,,0.03,Wunderground v.1.15,2013-11-23 02:48:00,
2013-11-22 21:50:00,36.8,31.8,30.44,North,4,7.0,10.0,82,0.00,,,0.03,Wunderground v.1.15,2013-11-23 02:50:00,
2013-11-22 21:52:00,36.8,32.1,30.44,North,354,7.0,10.0,83,0.00,,,0.03,Wunderground v.1.15,2013-11-23 02:52:00,
2013-11-22 21:56:00,36.7,32.0,30.44,NNE,26,7.0,10.0,83,0.00,,,0.03,Wunderground v.1.15,2013-11-23 02:56:00,
2013-11-22 21:58:00,36.7,32.0,30.44,NNE,18,7.0,11.0,83,0.00,,,0.03,Wunderground v.1.15,2013-11-23 02:58:00,
2013-11-22 22:02:00,36.6,31.9,30.44,NNE,18,8.0,8.0,83,0.00,,,0.03,Wunderground v.1.15,2013-11-23 03:02:00,
2013-11-22 22:04:00,36.6,31.9,30.44,North,9,7.0,8.0,83,0.00,,,0.03,Wunderground v.1.15,2013-11-23 03:04:00,
2013-11-22 22:06:00,36.6,31.9,30.44,NNW,343,8.0,8.0,83,0.00,,,0.03,Wunderground v.1.15,2013-11-23 03:06:00,
2013-11-22 22:08:00,36.6,31.9,30.44,NNW,343,7.0,8.0,83,0.00,,,0.03,Wunderground v.1.15,2013-11-23 03:08:00,
2013-11-22 22:10:00,36.5,31.8,30.44,NNW,332,7.0,8.0,83,0.00,,,0.03,Wunderground v.1.15,2013-11-23 03:10:00,
2013-11-22 22:12:00,36.5,31.8,30.44,NNE,13,6.0,7.0,83,0.00,,,0.03,Wunderground v.1.15,2013-11-23 03:12:00,
2013-11-22 22:16:00,36.5,31.8,30.44,NNE,14,6.0,7.0,83,0.00,,,0.03,Wunderground v.1.15,2013-11-23 03:16:00,
2013-11-22 22:18:00,36.4,31.7,30.44,NNW,343,6.0,7.0,83,0.00,,,0.03,Wunderground v.1.15,2013-11-23 03:18:00,
2013-11-22 22:20:00,36.4,31.7,30.44,NNE,15,6.0,7.0,83,0.00,,,0.03,Wunderground v.1.15,2013-11-23 03:20:00,
2013-11-22 22:24:00,36.4,32.0,30.44,North,359,6.0,10.0,84,0.00,,,0.03,Wunderground v.1.15,2013-11-23 03:24:00,
2013-11-22 22:26:00,36.4,32.0,30.44,North,354,6.0,10.0,84,0.00,,,0.03,Wunderground v.1.15,2013-11-23 03:26:00,
2013-11-22 22:28:00,36.4,32.0,30.44,NNW,337,5.0,10.0,84,0.00,,,0.03,Wunderground v.1.15,2013-11-23 03:28:00,
2013-11-22 22:30:00,36.3,31.9,30.44,NNW,345,5.0,10.0,84,0.00,,,0.03,Wunderground v.1.15,2013-11-23 03:30:00,
2013-11-22 22:32:00,36.3,31.9,30.44,NE,41,5.0,8.0,84,0.00,,,0.03,Wunderground v.1.15,2013-11-23 03:32:00,
2013-11-22 22:36:00,36.2,31.8,30.44,NNW,342,5.0,9.0,84,0.00,,,0.03,Wunderground v.1.15,2013-11-23 03:36:00,
2013-11-22 22:38:00,36.2,31.8,30.44,North,4,5.0,9.0,84,0.00,,,0.03,Wunderground v.1.15,2013-11-23 03:38:00,
2013-11-22 22:40:00,36.2,31.8,30.44,NNW,337,6.0,9.0,84,0.00,,,0.03,Wunderground v.1.15,2013-11-23 03:40:00,
2013-11-22 22:42:00,36.2,31.8,30.44,NNE,17,6.0,9.0,84,0.00,,,0.03,Wunderground v.1.15,2013-11-23 03:42:00,
2013-11-22 22:44:00,36.2,31.8,30.44,NNE,23,6.0,9.0,84,0.00,,,0.03,Wunderground v.1.15,2013-11-23 03:44:00,
2013-11-22 22:46:00,36.2,31.8,30.44,North,8,6.0,9.0,84,0.00,,,0.03,Wunderground v.1.15,2013-11-23 03:46:00,
2013-11-22 22:48:00,36.1,31.7,30.44,NNW,338,7.0,9.0,84,0.00,,,0.03,Wunderground v.1.15,2013-11-23 03:48:00,
2013-11-22 22:50:00,36.1,31.7,30.44,NNE,18,6.0,9.0,84,0.00,,,0.03,Wunderground v.1.15,2013-11-23 03:50:00,
2013-11-22 22:52:00,36.1,31.7,30.44,North,354,6.0,10.0,84,0.00,,,0.03,Wunderground v.1.15,2013-11-23 03:52:00,
2013-11-22 22:54:00,36.0,31.6,30.44,North,8,6.0,10.0,84,0.00,,,0.03,Wunderground v.1.15,2013-11-23 03:54:00,
2013-11-22 22:56:00,36.0,31.6,30.44,North,11,7.0,10.0,84,0.00,,,0.03,Wunderground v.1.15,2013-11-23 03:56:00,
2013-11-22 22:58:00,36.0,31.6,30.44,NNW,343,7.0,10.0,84,0.00,,,0.03,Wunderground v.1.15,2013-11-23 03:58:00,
2013-11-22 23:00:00,36.0,31.9,30.44,NNE,27,6.0,10.0,85,0.00,,,0.03,Wunderground v.1.15,2013-11-23 04:00:00,
2013-11-22 23:02:00,35.9,31.8,30.44,North,359,7.0,7.0,85,0.00,,,0.03,Wunderground v.1.15,2013-11-23 04:02:00,
2013-11-22 23:04:00,35.8,31.7,30.44,North,349,6.0,7.0,85,0.00,,,0.03,Wunderground v.1.15,2013-11-23 04:04:00,
2013-11-22 23:08:00,35.8,31.7,30.44,North,10,6.0,7.0,85,0.00,,,0.03,Wunderground v.1.15,2013-11-23 04:08:00,
2013-11-22 23:10:00,35.8,31.7,30.44,NNE,18,6.0,7.0,85,0.00,,,0.03,Wunderground v.1.15,2013-11-23 04:10:00,
2013-11-22 23:12:00,35.7,31.6,30.44,NNE,27,5.0,6.0,85,0.00,,,0.03,Wunderground v.1.15,2013-11-23 04:12:00,
2013-11-22 23:14:00,35.7,31.6,30.44,NNE,17,5.0,6.0,85,0.00,,,0.03,Wunderground v.1.15,2013-11-23 04:14:00,
2013-11-22 23:16:00,35.6,31.5,30.44,North,349,5.0,6.0,85,0.00,,,0.03,Wunderground v.1.15,2013-11-23 04:16:00,
2013-11-22 23:20:00,35.6,31.5,30.44,North,4,5.0,8.0,85,0.00,,,0.03,Wunderground v.1.15,2013-11-23 04:20:00,
2013-11-22 23:22:00,35.5,31.4,30.44,ENE,65,5.0,5.0,85,0.00,,,0.03,Wunderground v.1.15,2013-11-23 04:22:00,
2013-11-22 23:24:00,35.5,31.4,30.44,NNE,18,5.0,5.0,85,0.00,,,0.03,Wunderground v.1.15,2013-11-23 04:24:00,
2013-11-22 23:26:00,35.5,31.4,30.44,North,354,5.0,5.0,85,0.00,,,0.03,Wunderground v.1.15,2013-11-23 04:26:00,
2013-11-22 23:30:00,35.4,31.6,30.44,NNE,29,5.0,5.0,86,0.00,,,0.03,Wunderground v.1.15,2013-11-23 04:30:00,
2013-11-22 23:34:00,35.4,31.3,30.44,North,354,5.0,7.0,85,0.00,,,0.03,Wunderground v.1.15,2013-11-23 04:34:00,
2013-11-22 23:36:00,35.4,31.3,30.44,NNE,31,6.0,7.0,85,0.00,,,0.03,Wunderground v.1.15,2013-11-23 04:36:00,
2013-11-22 23:40:00,35.3,31.2,30.45,NNW,340,6.0,7.0,85,0.00,,,0.03,Wunderground v.1.15,2013-11-23 04:40:00,
2013-11-22 23:42:00,35.2,31.1,30.45,NNW,345,6.0,6.0,85,0.00,,,0.03,Wunderground v.1.15,2013-11-23 04:42:00,
2013-11-22 23:44:00,35.2,31.1,30.45,NNW,337,5.0,6.0,85,0.00,,,0.03,Wunderground v.1.15,2013-11-23 04:44:00,
2013-11-22 23:46:00,35.1,31.0,30.45,North,4,5.0,6.0,85,0.00,,,0.03,Wunderground v.1.15,2013-11-23 04:46:00,
2013-11-22 23:48:00,35.1,31.0,30.45,NNW,343,5.0,6.0,85,0.00,,,0.03,Wunderground v.1.15,2013-11-23 04:48:00,
2013-11-22 23:50:00,35.1,31.3,30.45,NNW,343,5.0,6.0,86,0.00,,,0.03,Wunderground v.1.15,2013-11-23 04:50:00,
2013-11-22 23:52:00,35.0,31.2,30.45,NW,318,5.0,5.0,86,0.00,,,0.03,Wunderground v.1.15,2013-11-23 04:52:00,
2013-11-22 23:54:00,35.0,31.2,30.45,NNE,18,5.0,5.0,86,0.00,,,0.03,Wunderground v.1.15,2013-11-23 04:54:00,